DECAYED

STARLINK-1541, 46052 (Decayed)

Orbit data source: Space-Track

STARLINK-1541, 46052 was a payload satellite owned by SpaceX/Seattle (US) in LEO that was launched on Fri, 07 Aug 2020 UTC via an FALCON 9 launch vehicle from the Air Force Eastern Test Range (AFETR). Payload-class satellites include a variety of spacecraft equipped with specific instruments for various scientific and technological missions. These include communications satellites like Starlink; space stations such as the ISS; scientific satellites like the Hubble; Earth observation satellites from companies like Planet Labs, Umbra, and HawkEye 360; GPS; miniature CubeSats for education and research; and military/defense satellites.

Not visible in the next 10 days
Identifier
46052, 2020-055AB
Orbit
Decayed
Country
Flag of USUS
Related business
Manufacturer
SpaceX/Seattle
Mission
Decayed Commercial Communications
Bus & Motor
STARLINK, Unknown motor
Mass
260 kg wet, ~248 kg dry
Launch date (UTC)
2020-08-07 (6 years ago)
Launch vehicle
FALCON 9
Launch site
Air Force Eastern Test Range (AFETR)
Object type
Payload
Rocket body
Debris
Shape & HBR
Box + 1 Pan, 10.1 m
Radar Cross Section
13.562 m², Large (>1 m²)

Expand to show TLE details & history
Last TLE update: 2 months ago

TLE from 2 months ago
0 STARLINK-1541
1 46052U 20055AB  26205.71420644  .11230242  12472-4  37607-3 0  9993
2 46052  53.1359 157.6174 0004616 266.0662  93.9860 16.44481002330574
Epoch: 2026-07-24T17:08Z
TLE epoch observation values (Epoch: 2026-07-24T17:08:27.436Z)
Latitude
-0.00002°
Longitude
-41.93381°
Altitude
155.062 km
Speed
7.814 km/s
True Right ascension
10h 30m 28s
True Declination
0° 00' 00"
Sunlit
Object was in daylight at epoch
Visualization orbit readout
Latitude
Unknown
Longitude
Unknown
Altitude
Unknown
Speed
Unknown
Apparent Right ascension
Unknown
Apparent Declination
Unknown
Sunlit
N/A
Visualization observer readout
Local Sidereal Time
16:16:53
Azimuth
Unknown
Elevation
Unknown
Doppler factor
Unknown
Orbital elements
Apogee altitude
157.198 km
Perigee altitude
151.167 km
Semi-major axis
6,532.319 km
Eccentricity
0.00046
Inclination
53.1359°
RAAN
157.6174°
Arg. of periapsis
266.0662°
True anomaly
94.03877°
Mean anomaly
93.986°
Eccentric anomaly
94.01238°
Mean motion
4.11095 °/min
Orbital period
87.57 mins
BSTAR
0.00037607
Loading maneuver chart data...
Computing Atmospheric mass density...

Documentation

Showing up to 5 results
|